Starlink 32878

operational
NORAD ID: 62892 Int'l Des: 2025-024 Owner: SPXS Country: US Constellation: starlink
LEOCIRCULAR

关于 Starlink 32878

正在加载描述...

实时位置

正在加载3D地球...

即将过境

高度历史

Altitude vs Time

uPlot chart will show altitude changes over time

两行轨道根数

1 62892U 25024P 26036.38355662 .00049690 00000-0 18032-2 0 9999
2 62892 42.9981 147.9409 0004358 298.4668 61.5744 15.27571771 57326
Epoch: Feb 5, 2026 • Age: 15 hours

当前状态

高度 488.6 km
速度 7.63 km/s
星下点 43.10°N, 106.04°E
发射日期 Feb 4, 2025
运行时间 1 years
类型 internet

技术详情

分类 Payload
质量 730.00 kg
干质量 700.00 kg
总质量 730.00 kg
长度 0.30 m
直径 4.10 m
跨度 29.00 m
形状 Box + pan
制造商 SPXS
平台类型 Starlink V2M
阶段状态 In Orbit
所有者/国家 SPXS/US

大型星座

Loading constellations...